This is the latest recevied weather packets stored in our database for station/object KD2SIG. If no packets are shown the sender has not sent any weather packets the latest 10 day(s).
| Time | Temp. | Humidity | Pressure | Rain* | Wind** | Luminosity | Snow |
|---|---|---|---|---|---|---|---|
| 1787837734 | 21.67° C | 84% | 1012.9 hPa | 0 mm | - | 240 W/m² | - |
| 1787837428 | 21.11° C | 85% | 1013 hPa | 0 mm | - | 204 W/m² | - |
| 1787837124 | 21.11° C | 85% | 1013 hPa | 0 mm | - | 252 W/m² | - |
| 1787836823 | 21.11° C | 84% | 1012.9 hPa | 0 mm | - | 110 W/m² | - |
| 1787836518 | 21.11° C | 83% | 1013.1 hPa | 0 mm | - | 67 W/m² | - |
| 1787836213 | 21.67° C | 82% | 1013 hPa | 0 mm | - | 54 W/m² | - |
| 1787835909 | 22.22° C | 80% | 1013 hPa | 0 mm | - | 91 W/m² | - |
| 1787835608 | 22.22° C | 80% | 1013.1 hPa | 0 mm | - | 109 W/m² | - |
| 1787835303 | 22.22° C | 79% | 1013 hPa | 0 mm | - | 81 W/m² | - |
| 1787834999 | 22.78° C | 78% | 1013 hPa | 0 mm | - | 80 W/m² | - |
| 1787834698 | 22.78° C | 77% | 1012.9 hPa | 0 mm | - | 180 W/m² | - |
| 1787834393 | 23.33° C | 77% | 1012.9 hPa | 0 mm | - | 230 W/m² | - |
| 1787834089 | 22.78° C | 78% | 1012.7 hPa | 0 mm | - | 294 W/m² | - |
| 1787833789 | 22.22° C | 80% | 1013.1 hPa | 0 mm | - | 243 W/m² | - |
| 1787833484 | 21.67° C | 81% | 1013 hPa | 0 mm | - | 209 W/m² | - |
| 1787833179 | 21.67° C | 81% | 1012.7 hPa | 0 mm | - | 106 W/m² | - |
| 1787832876 | 21.67° C | 81% | 1012.8 hPa | 0 mm | - | 88 W/m² | - |
| 1787832571 | 21.11° C | 81% | 1013.1 hPa | 0 mm | - | 78 W/m² | - |
| 1787832270 | 21.11° C | 81% | 1013 hPa | 0 mm | - | 79 W/m² | - |
| 1787831967 | 21.11° C | 81% | 1013 hPa | 0 mm | - | 77 W/m² | - |
| 1787831663 | 21.11° C | 81% | 1013.2 hPa | 0 mm | - | 78 W/m² | - |
| 1787831362 | 21.11° C | 81% | 1013 hPa | 0 mm | - | 75 W/m² | - |
| 1787831059 | 21.11° C | 81% | 1013 hPa | 0 mm | - | 75 W/m² | - |
| 1787830758 | 21.11° C | 81% | 1013 hPa | 0 mm | - | 78 W/m² | - |
| 1787830457 | 20.56° C | 82% | 1013 hPa | 0 mm | - | 62 W/m² | - |
* Rain latest hour (hover to see other rain measurements)
** Current wind speed in m/s (hover to see current wind gust speed)